Location: Derby
(52.9213°N, 1.4761°W)
Time: 15:27:19
(UTC+01:00)

Vanguard 1 - Pass Details

Date: 24 May 2025
Orbit: 649 x 3822 km, 34.3° (Epoch: 14 June)

Event Time Altitude Azimuth Distance (km) Brightness Sun altitude
Rises 22:01:51 0° 266° (W) 6,477 14.9 -6.4°
Reaches altitude 10° 22:08:28 10° 252° (WSW) 4,779 13.9 -7.0°
Maximum altitude 22:15:38 18° 216° (SW) 3,367 12.7 -7.7°
Drops below altitude 10° 22:20:53 10° 178° (S) 3,313 12.3 -8.2°
Enters shadow 22:22:21 - 168° (SSE) 3,505 12.3 -8.4°
Sets 22:24:18 0° 158° (SSE) 3,874 - -8.5°
